SL-24 PLAT

Satellite information

Favourite Embed

Satellite Type and Status

DEBRISIN ORBIT

Key statistics

Satellite SL-24 PLAT at a glance.

Uptime

4196

Days in orbit

Revolutions

≈ 15.1

Per day

Orbit

SSO

Sun Synchronous Orbit

Inclination

98.1

Latest

Satellite identification and parameters

Extended collection of information and parameters for SL-24 PLAT.

Object identification

Identified? True

Debris? False

Object name: SL-24 PLAT

International designator: 2014-033AR

Object number (NORAD): 40049

Object ID (CCSDS): 40049

Country: COMMONWEALTH OF INDEPENDENT STATES (CIS)

Current information (Y/N): Y

RCS size: LARGE

Orbital parameters

Period: 95.507 minutes

Inclination: 98.0887 deg

SMA: 6921.233 km

Apoapsis: 548.128 km

Periapsis: 538.068 km

RAAN: 330.9094 deg

Eccentricy: 0.00072671

Argument of periapsis: 146.0777 deg

Mean anomaly: 214.0915 deg

Mean motion: 15.07743828 rev/day

Mean motion (dot): 0.00008693 rev/day2

B* drag term: 0.000572884 1/REarth

Two-line elements (TLE)

Creation date: Dec. 14, 2025, 3:07 a.m.

Reference frame: TEME

Reference center: EARTH

Epoch: Dec. 13, 2025, 12:23 p.m. UTC

TLE line 0: 0 SL-24 PLAT

TLE line 1: 1 40049U 14033AR 25347.51654924 .00008693 00000-0 57288-3 0 9994

TLE line 2: 2 40049 98.0887 330.9094 0007267 146.0777 214.0915 15.07743828624213

Live tracking on map

Real-time ground track for satellite SL-24 PLAT.

In-orbit conjunctions

A list of the most updated potential collisions computed for object SL-24 PLAT.

Target Orbit TCA Probability of collision Miss distance Type
OBJECT H SSO 2025-11-15 20:04:07 0.005196037 101.0 (m) UNKNOWN
FENGYUN 1C DEB SSO 2025-09-20 07:13:36 0.000119713 125.0 (m) DEBRIS
SCOUT X-4 DEB LEO 2025-07-23 13:10:45 0.000435101 275.0 (m) DEBRIS
COSMOS 2251 DEB LEO 2025-02-26 10:05:19 0.0002623065 649.0 (m) DEBRIS
COSMOS 2251 DEB LEO 2025-02-26 08:29:27 0.0007527223 969.0 (m) DEBRIS

Associated space launch

SL-24 PLAT was lifted into orbit during the mission ‘Dnepr 1 | Multipayload, 37 satellites.’, on board a Dnepr space rocket.

The launch took place on June 19, 2014, 7:11 p.m. from 370/13.

For more information about the launch, click the button.

Launch to space Dnepr 1 | Multipayload, 37 satellites.
Dnepr 1 | Multipayload, 37 satellites.

Agency: N/A

Status: Launch Successful

Launch date: June 19, 2014, 7:11 p.m. UTC

Rocket: Dnepr

Launch pad: 370/13

Location: Dombarovskiy, Russian Federation

...

Latest news about this satellite

There are no fresh news available about this satellite. Check back as we update our databases every day.


Newsletter sign-up

Weekly statistics, charts and insights to help you stay on top of the space industry.